[[{"header":{"parameterUnit":"m.s-1","parameterCategory":1,"la1":30.2991,"la2":30.254,"lo1":-89.0895,"lo2":-89.0444,"dy":0.0017,"dx":0.0017,"nx":28,"ny":28,"refTime":"2025-03-05T09:00:00:Z","depth":0,"parameterNumber":2,"parameterNumberName":"U-component_of_WINDS"},"data":[0,0,0,0,0,0,0,0,0,0,0,0,0,0,0,0,0,0,0,0,0,0,0,0,0,0,0,0,0,0,0,0,0,0,0,0,0,0,0,0,0,0,0,0,0,0,0,0,0,0,0,0,0,0,0,0,0,0,5.5746,5.5747,0,5.5795,5.5795,5.5796,5.5696,5.5692,5.5689,5.5686,5.5739,5.5744,5.5748,0,0,0,0,0,0,0,0,0,0,0,0,0,5.5571,5.5575,5.5746,5.5747,5.5747,5.5795,5.5795,5.5796,5.5696,5.5692,5.5688,5.5685,5.5738,5.5743,5.5749,0,0,0,0,0,0,0,0,0,0,0,0,0,5.5636,5.5576,5.5746,5.5703,5.57,5.5794,5.5795,5.5796,5.5697,5.5692,5.5687,5.5683,5.5736,5.5743,5.5749,5.5889,0,0,5.577,5.5773,0,0,0,0,0,0,0,0,5.5633,5.5643,5.5709,5.5706,5.5703,5.5734,5.5753,5.5827,5.5698,5.5698,5.5686,5.568,5.5742,5.5748,5.5768,5.5891,5.5894,5.577,5.5774,5.5777,5.5779,0,0,0,0,0,0,0,5.5628,5.564,5.5765,5.571,5.5706,5.5683,5.5687,5.5767,5.5747,5.5698,5.5691,5.5698,5.5739,5.5762,5.5768,5.5894,5.577,5.5776,5.578,5.5783,5.6135,5.614,0,0,0,0,0,0,5.5629,5.5637,5.5764,5.5767,5.5655,5.569,5.5694,5.5729,5.5746,5.5744,5.5702,5.5693,5.5752,5.5761,5.577,5.5934,5.5777,5.5784,5.5787,5.613,5.6136,5.6142,0,0,0,0,0,0,5.5625,5.5641,5.5762,5.57,5.5714,5.5698,5.5738,5.5733,5.5755,5.5749,5.5745,5.5728,5.5749,5.576,5.586,5.5934,5.5787,5.5793,5.6123,5.6132,5.6139,5.6263,0,0,0,0,0,0,5.5621,5.564,5.5692,5.5702,5.5717,5.585,5.5743,5.5737,5.5766,5.5755,5.5772,5.5771,5.5746,5.585,5.5866,5.5941,5.5798,5.6117,5.6127,5.6136,5.6253,5.6275,5.6294,0,0,0,0,0,5.5615,5.5726,5.5695,5.5711,5.5782,5.5855,5.5864,5.5832,5.5772,5.5825,5.5821,5.577,5.5924,5.5861,5.5879,5.5956,5.6112,5.6124,5.6136,5.6243,5.627,5.6293,0,0,0,0,0,0,5.5727,5.5727,5.5692,5.581,5.5833,5.5838,5.5903,5.5862,5.5903,5.5891,5.5851,5.5856,5.5963,5.597,5.59,5.6092,5.6008,5.6024,5.6084,5.6109,5.6129,5.6125,5.5804,0,0,0,0,0,5.5765,5.5823,5.582,5.5925,5.5938,5.5919,5.595,5.5923,5.5946,5.5955,5.5959,5.5984,5.6037,5.6074,5.6123,5.6253,5.6256,5.6315,5.6336,5.6353,5.6367,5.6436,5.6462,5.6181,5.6181,5.6181,0,0,5.5845,5.5852,5.5892,5.5947,5.5962,5.6024,5.5928,5.5998,5.6043,5.5966,5.6059,5.6064,5.6089,5.6204,5.6255,5.6213,5.6445,5.6368,5.6381,5.6386,5.6451,5.6478,5.6501,5.6189,5.6188,5.6187,0,0,5.6022,5.6033,5.6121,5.6138,5.6161,5.6147,5.6169,5.618,5.6179,5.6272,5.6215,5.627,5.6364,5.6384,5.6406,5.6592,5.6546,5.6609,5.6716,5.6784,5.6806,5.6826,5.6892,5.6916,5.6624,5.6624,5.6624,0,5.6119,5.6209,5.6172,5.6245,5.6272,5.6204,5.6293,5.6311,5.635,5.637,5.6322,5.6438,5.645,5.6569,5.6614,5.6635,5.6659,5.6607,5.6806,5.6825,5.6843,5.6905,5.693,5.6631,5.6631,5.663,5.6629,0,5.6326,5.639,5.6458,5.6496,5.653,5.6611,5.6588,5.6627,5.6598,5.6591,5.6686,5.6699,5.6749,5.6776,5.6749,5.6892,5.6864,5.6812,5.6726,5.6877,5.6935,5.6959,5.6642,5.6639,5.6637,5.6635,0,0,5.6574,5.659,5.6616,5.6632,5.6653,5.6702,5.6781,5.6829,5.6863,5.6893,5.6958,5.7039,5.699,5.7016,5.6991,5.7051,5.7197,5.6991,5.6991,5.7028,5.7355,5.7393,5.7421,5.7167,5.7171,5.7175,5.7352,0,5.6749,5.6882,5.6852,5.6984,5.7042,5.6979,5.7048,5.7069,5.7064,5.7114,5.7109,5.7166,5.7098,5.7113,5.717,5.7167,5.7262,5.7154,5.7228,5.7231,5.7222,5.7452,5.7493,5.766,5.7375,5.7379,5.7381,0,5.697,5.7007,5.7145,5.7156,5.7179,5.7241,5.7283,5.7331,5.7354,5.7346,5.7375,5.7339,5.7417,5.7332,5.744,5.7368,5.7396,5.74,5.7405,5.741,5.7315,5.7463,5.7712,5.7737,5.7417,5.7414,5.7411,0,5.7137,5.7221,5.7313,5.733,5.7345,5.739,5.7399,5.7417,5.7448,5.7485,5.7505,5.7552,5.7577,5.7614,5.7592,5.7531,5.7704,5.7616,5.77,5.7701,5.7739,5.7737,5.7996,5.7759,5.7759,5.7758,5.7758,0,5.7334,5.7421,5.7388,5.7446,5.7541,5.7506,5.7602,5.7604,5.762,5.7677,5.7627,5.7682,5.7648,5.7701,5.7684,5.7777,5.7789,5.7785,5.778,5.7789,5.779,5.7807,5.7794,5.7765,5.7763,5.7762,5.7761,0,5.7536,5.7517,5.7614,5.7621,5.7625,5.7695,5.7702,5.7755,5.7747,5.782,5.7835,5.7823,5.7882,5.7863,5.7928,5.7916,5.8033,5.8013,5.8025,5.802,5.8105,5.8097,5.8383,5.8419,5.816,5.8163,5.8165,0,5.7662,5.7727,5.7741,5.7775,5.7787,5.7843,5.7874,5.7843,5.7878,5.7909,5.7959,5.8014,5.8056,5.8154,5.8152,5.8201,5.8181,5.8278,5.8188,5.8196,5.8182,5.8178,5.8184,5.8296,5.8299,5.8301,5.8303,0,5.7889,5.7877,5.7923,5.7967,5.8005,5.8038,5.8067,5.8098,5.8068,5.811,5.817,5.8202,5.8268,5.8323,5.8368,5.8378,5.8337,5.8332,5.8354,5.8364,5.8368,5.8366,5.8073,5.8325,5.8323,5.8321,5.832,5.8319,5.8056,5.8111,5.8129,5.8183,5.8201,5.8229,5.8279,5.8277,5.8326,5.8376,5.8355,5.8424,5.8446,5.8501,5.8517,5.8571,5.8534,5.8566,5.8574,5.8582,5.8593,5.836,5.858,5.8579,5.8578,5.8578,5.8577,0,5.828,5.8288,5.8338,5.8379,5.8421,5.8378,5.8407,5.8446,5.8507,5.853,5.8572,5.8641,5.8695,5.8696,5.8746,5.8789,5.8772,5.8804,5.88,5.8803,5.8623,5.8599,5.8817,5.8817,5.8817,5.8817,5.8817,5.8817,5.8401,5.8491,5.8481,5.858,5.8589,5.8655,5.8675,5.8701,5.872,5.8798,5.8842,5.8842,5.8858,5.8908,5.8956,5.8955,5.8976,5.9015,5.9007,5.8839,5.8815,5.8793,5.8769,5.902,5.902,5.9182,5.9183,5.9184]},{"header":{"parameterUnit":"m.s-1","parameterCategory":1,"la1":30.2991,"la2":30.254,"lo1":-89.0895,"lo2":-89.0444,"dy":0.0017,"dx":0.0017,"nx":28,"ny":28,"refTime":"2025-03-05T09:00:00:Z","depth":0,"parameterNumber":3,"parameterNumberName":"V-component_of_WINDS"},"data":[0,0,0,0,0,0,0,0,0,0,0,0,0,0,0,0,0,0,0,0,0,0,0,0,0,0,0,0,0,0,0,0,0,0,0,0,0,0,0,0,0,0,0,0,0,0,0,0,0,0,0,0,0,0,0,0,0,0,4.2859,4.2861,0,4.3015,4.3017,4.3019,4.3005,4.3003,4.3001,4.2998,4.3158,4.3164,4.3171,0,0,0,0,0,0,0,0,0,0,0,0,0,4.2549,4.2555,4.2859,4.2861,4.2863,4.3015,4.3017,4.3019,4.3006,4.3003,4.3,4.2997,4.3156,4.3163,4.3171,0,0,0,0,0,0,0,0,0,0,0,0,0,4.2692,4.2557,4.2859,4.2875,4.2878,4.3014,4.3017,4.302,4.3006,4.3003,4.2999,4.2996,4.3153,4.3163,4.3172,4.3303,0,0,4.3202,4.3206,0,0,0,0,0,0,0,0,4.2684,4.2704,4.287,4.2874,4.2877,4.2987,4.2966,4.3115,4.3007,4.2958,4.2998,4.2994,4.3104,4.3117,4.3154,4.331,4.3317,4.3203,4.3208,4.3213,4.3215,0,0,0,0,0,0,0,4.2674,4.2697,4.2921,4.2873,4.2877,4.2874,4.289,4.2994,4.3049,4.2962,4.2961,4.298,4.3105,4.3145,4.3158,4.332,4.3202,4.3211,4.3217,4.3221,4.3592,4.3596,0,0,0,0,0,0,4.2661,4.2689,4.2916,4.2925,4.277,4.2882,4.2901,4.2955,4.3048,4.3058,4.2983,4.2978,4.313,4.3147,4.3164,4.3324,4.3213,4.3222,4.3227,4.3588,4.3593,4.3597,0,0,0,0,0,0,4.2654,4.2681,4.2909,4.2807,4.2836,4.2891,4.2953,4.296,4.3,4.3063,4.3073,4.3014,4.3128,4.315,4.3269,4.3329,4.3226,4.3235,4.3583,4.3589,4.3595,4.3645,0,0,0,0,0,0,4.2645,4.2679,4.2729,4.2808,4.2841,4.3012,4.2957,4.2966,4.3017,4.3013,4.3095,4.3105,4.3127,4.3254,4.3278,4.3341,4.3242,4.3578,4.3586,4.3593,4.3638,4.3652,4.3664,0,0,0,0,0,4.2634,4.2737,4.2732,4.2759,4.2905,4.3016,4.3034,4.3058,4.3022,4.3073,4.3114,4.3102,4.3318,4.3267,4.3293,4.336,4.3574,4.3583,4.3592,4.3632,4.3649,4.3663,0,0,0,0,0,0,4.2663,4.2747,4.2743,4.2874,4.2938,4.3013,4.3078,4.3075,4.315,4.3143,4.3169,4.3187,4.3307,4.3345,4.3286,4.3491,4.3441,4.3456,4.3463,4.3479,4.3492,4.3481,4.325,0,0,0,0,0,4.2685,4.2767,4.2836,4.2945,4.2977,4.3022,4.3071,4.3084,4.3151,4.3178,4.3227,4.3292,4.3375,4.3429,4.3508,4.3643,4.3661,4.3702,4.3714,4.3725,4.3738,4.3813,4.3832,4.3627,4.3627,4.3627,0,0,4.273,4.2786,4.2837,4.2952,4.3003,4.3088,4.3045,4.3137,4.32,4.3192,4.3307,4.3345,4.342,4.3547,4.3606,4.3583,4.3798,4.3736,4.3744,4.3752,4.3824,4.3843,4.3861,4.3633,4.3632,4.3631,0,0,4.2857,4.2907,4.3004,4.3056,4.3134,4.3163,4.3186,4.3263,4.3288,4.3404,4.34,4.3475,4.3617,4.3671,4.3717,4.3864,4.3857,4.3889,4.3956,4.4029,4.4045,4.406,4.4114,4.4132,4.3901,4.3901,4.3902,0,4.2904,4.3032,4.3054,4.3147,4.3199,4.3195,4.3293,4.3342,4.3442,4.3477,4.345,4.3628,4.3678,4.3818,4.3854,4.3891,4.3919,4.388,4.4041,4.4056,4.407,4.4121,4.4141,4.3905,4.3905,4.3904,4.3904,0,4.3086,4.3175,4.3244,4.3341,4.34,4.3495,4.3532,4.3589,4.3596,4.3628,4.3747,4.3806,4.3898,4.3932,4.394,4.4074,4.4058,4.4035,4.3986,4.4092,4.4141,4.4161,4.391,4.3909,4.3908,4.3907,0,0,4.3236,4.3344,4.3369,4.3414,4.3499,4.3569,4.3663,4.3754,4.3802,4.3871,4.3952,4.4072,4.4052,4.4104,4.4118,4.4181,4.4296,4.4151,4.4153,4.4177,4.4449,4.4466,4.4488,4.4291,4.4295,4.4298,4.4443,0,4.3372,4.3541,4.3564,4.3714,4.3797,4.3794,4.3877,4.3938,4.3971,4.4046,4.4081,4.4167,4.4133,4.4165,4.4228,4.4268,4.4351,4.4258,4.4367,4.4371,4.435,4.4514,4.4532,4.4666,4.4462,4.4465,4.4467,0,4.3554,4.3628,4.3786,4.3861,4.3897,4.3971,4.4056,4.4128,4.4197,4.4217,4.4275,4.4281,4.4379,4.4325,4.4461,4.4398,4.4444,4.447,4.4476,4.4488,4.4426,4.4532,4.471,4.473,4.4498,4.4495,4.4493,0,4.3649,4.3788,4.3901,4.3939,4.4029,4.4082,4.4121,4.4188,4.4241,4.4315,4.4349,4.4433,4.448,4.4545,4.4574,4.4531,4.4709,4.4657,4.4729,4.4728,4.4767,4.4765,4.4956,4.4794,4.4794,4.4794,4.4793,0,4.3799,4.3896,4.3945,4.4015,4.4124,4.4149,4.4256,4.4294,4.4353,4.443,4.4432,4.4504,4.4537,4.4615,4.4637,4.4748,4.4768,4.4787,4.4792,4.4788,4.4786,4.4819,4.4811,4.4799,4.4798,4.4797,4.4796,0,4.3924,4.3961,4.4084,4.4159,4.4181,4.4258,4.4322,4.439,4.4421,4.4519,4.4543,4.4593,4.4684,4.4719,4.483,4.4845,4.4973,4.497,4.495,4.4951,4.5022,4.5015,4.5243,4.5275,4.509,4.5092,4.5094,0,4.4019,4.4093,4.4177,4.4229,4.4271,4.4354,4.4409,4.4436,4.4493,4.4578,4.4636,4.4727,4.4801,4.4947,4.4993,4.5078,4.5078,4.5152,4.5091,4.5084,4.5081,4.5076,4.5085,4.5163,4.5165,4.5167,4.5168,0,4.4183,4.4197,4.4275,4.4361,4.4426,4.4494,4.456,4.4603,4.464,4.4704,4.4797,4.4855,4.4969,4.5059,4.5147,4.5188,4.5185,4.5187,4.5208,4.5205,4.5191,4.5201,4.4982,4.5182,4.518,4.5179,4.5179,4.5178,4.4296,4.4363,4.4433,4.452,4.4573,4.4635,4.4703,4.4743,4.4822,4.4917,4.4928,4.5029,4.5097,4.5214,4.5259,4.5338,4.5319,4.5349,4.5357,4.5365,4.5371,4.5177,4.5354,4.5354,4.5353,4.5353,4.5353,0,4.4461,4.4506,4.4586,4.4679,4.4749,4.4739,4.4813,4.4871,4.496,4.5024,4.5097,4.5205,4.5293,4.5346,4.5434,4.5488,4.5489,4.551,4.5507,4.5517,4.5382,4.5356,4.5508,4.5508,4.5508,4.5508,4.5508,4.5508,4.4555,4.4668,4.4691,4.4831,4.4875,4.4974,4.5016,4.5074,4.5125,4.5246,4.5319,4.5353,4.5413,4.5506,4.5586,4.56,4.5633,4.5656,4.5668,4.5542,4.5526,4.5511,4.5486,4.5663,4.5663,4.5796,4.5797,4.5798]}]]